74.0°F
Current conditions from King Hill
Updated every 5 minutes
 
  Sunday September 21, 2014

Station Historical Data
Daily Summary for April 25, 2012 Units:  English    Metric   Both
« Previous Day
Next Day »
Daily Weekly Monthly Yearly Custom
  High: Low: Average:
Temperature: 48.2 °F 38.3 °F 41.8 °F
Dew Point: 37.1 °F 30.9 °F 33.1 °F
Humidity: 85% 55% 71%
Wind Speed: 9.0mph 1.0mph 3.8mph
Wind Gust: 18.0mph - -
Wind- - SW
Pressure: 29.85 in 29.55 in -
Precipitation: 0.07 in    
Historical Graphs
 
 
Tabular Data for April 25, 2012
Time Temperature Dew Point Pressure Wind Wind Speed Wind Gust Humidity Daily Rainfall
00:04 39.9 °F 32.3 °F 29.55 in SSW 2.0 mph 7.0 mph 74% 0.00 in
00:09 39.8 °F 32.5 °F 29.55 in SSW 3.0 mph 11.0 mph 75% 0.00 in
00:14 39.7 °F 32.4 °F 29.55 in Calm   11.0 mph 75% 0.00 in
00:19 39.5 °F 32.6 °F 29.55 in SSW 2.0 mph 6.0 mph 76% 0.00 in
00:24 39.3 °F 32.7 °F 29.55 in SSW 2.0 mph 7.0 mph 77% 0.00 in
00:29 39.2 °F 32.9 °F 29.55 in SSW 2.0 mph 7.0 mph 78% 0.00 in
00:34 39.2 °F 32.9 °F 29.55 in SSW 3.0 mph 8.0 mph 78% 0.00 in
00:39 39.3 °F 33.0 °F 29.56 in SSW 2.0 mph 9.0 mph 78% 0.00 in
00:44 39.6 °F 33.3 °F 29.56 in SW 1.0 mph 9.0 mph 78% 0.00 in
00:54 40.0 °F 33.1 °F 29.56 in SSW 1.0 mph 7.0 mph 76% 0.00 in
00:59 40.1 °F 32.8 °F 29.56 in SSW 2.0 mph 7.0 mph 75% 0.00 in
01:04 40.3 °F 33.0 °F 29.56 in SSW 3.0 mph 8.0 mph 75% 0.00 in
01:09 40.4 °F 32.8 °F 29.56 in SW 3.0 mph 8.0 mph 74% 0.00 in
01:14 40.3 °F 33.0 °F 29.57 in SW 4.0 mph 8.0 mph 75% 0.00 in
01:19 40.5 °F 32.9 °F 29.57 in SSW 6.0 mph 14.0 mph 74% 0.00 in
01:24 40.6 °F 33.0 °F 29.57 in SSW 6.0 mph 14.0 mph 74% 0.00 in
01:29 40.5 °F 32.5 °F 29.57 in SSW 6.0 mph 12.0 mph 73% 0.00 in
01:34 40.2 °F 32.2 °F 29.57 in SSW 1.0 mph 12.0 mph 73% 0.00 in
01:44 39.6 °F 32.0 °F 29.57 in SW 2.0 mph 10.0 mph 74% 0.00 in
01:49 39.3 °F 31.7 °F 29.57 in SSW 3.0 mph 8.0 mph 74% 0.00 in
01:54 39.2 °F 31.6 °F 29.57 in SSW 5.0 mph 11.0 mph 74% 0.00 in
01:59 39.2 °F 31.6 °F 29.57 in SW 3.0 mph 11.0 mph 74% 0.00 in
02:04 39.1 °F 31.5 °F 29.57 in SSW 2.0 mph 8.0 mph 74% 0.00 in
02:09 39.1 °F 31.2 °F 29.57 in SSW 1.0 mph 7.0 mph 73% 0.00 in
02:14 38.9 °F 31.0 °F 29.57 in SSW 1.0 mph 7.0 mph 73% 0.00 in
02:19 39.0 °F 31.1 °F 29.57 in Calm   8.0 mph 73% 0.00 in
02:24 38.9 °F 31.0 °F 29.57 in Calm   8.0 mph 73% 0.00 in
02:29 39.0 °F 31.1 °F 29.57 in Calm   4.0 mph 73% 0.00 in
02:34 39.1 °F 31.2 °F 29.57 in SSW 1.0 mph 5.0 mph 73% 0.00 in
02:39 39.2 °F 31.3 °F 29.57 in SSW 2.0 mph 7.0 mph 73% 0.00 in
02:44 39.3 °F 31.4 °F 29.57 in Calm   7.0 mph 73% 0.00 in
02:49 39.5 °F 31.6 °F 29.58 in SSW 1.0 mph 6.0 mph 73% 0.00 in
02:54 39.8 °F 31.5 °F 29.58 in SSW 4.0 mph 8.0 mph 72% 0.00 in
02:59 40.0 °F 31.7 °F 29.58 in SSW 4.0 mph 9.0 mph 72% 0.00 in
03:04 40.2 °F 31.9 °F 29.58 in SW 4.0 mph 10.0 mph 72% 0.00 in
03:09 40.4 °F 31.7 °F 29.58 in SSW 5.0 mph 13.0 mph 71% 0.00 in
03:14 40.5 °F 31.8 °F 29.58 in SSW 2.0 mph 13.0 mph 71% 0.00 in
03:19 40.6 °F 31.9 °F 29.58 in SSW 5.0 mph 10.0 mph 71% 0.00 in
03:25 40.6 °F 31.9 °F 29.58 in SW 2.0 mph 9.0 mph 71% 0.00 in
03:34 40.5 °F 31.8 °F 29.58 in SSW 4.0 mph 11.0 mph 71% 0.00 in
03:39 40.2 °F 31.6 °F 29.58 in SW 5.0 mph 11.0 mph 71% 0.00 in
03:44 40.0 °F 31.4 °F 29.58 in SSW 2.0 mph 11.0 mph 71% 0.00 in
03:54 39.7 °F 31.1 °F 29.58 in SSW 3.0 mph 13.0 mph 71% 0.00 in
03:59 39.5 °F 30.9 °F 29.58 in SSW 4.0 mph 13.0 mph 71% 0.00 in
04:04 39.5 °F 30.9 °F 29.58 in SSW 4.0 mph 10.0 mph 71% 0.00 in
04:09 39.4 °F 31.1 °F 29.58 in SSW 4.0 mph 9.0 mph 72% 0.00 in
04:14 39.5 °F 31.2 °F 29.58 in SSW 1.0 mph 8.0 mph 72% 0.00 in
04:19 39.6 °F 31.3 °F 29.58 in SSW 2.0 mph 8.0 mph 72% 0.00 in
04:24 39.6 °F 31.3 °F 29.59 in SSW 3.0 mph 8.0 mph 72% 0.00 in
04:29 39.6 °F 31.3 °F 29.58 in SW 3.0 mph 9.0 mph 72% 0.00 in
04:34 39.6 °F 31.3 °F 29.58 in SSW 2.0 mph 9.0 mph 72% 0.00 in
04:39 39.6 °F 31.3 °F 29.58 in SSW 2.0 mph 8.0 mph 72% 0.00 in
04:44 39.6 °F 31.3 °F 29.59 in SSW 3.0 mph 8.0 mph 72% 0.00 in
04:54 39.5 °F 31.6 °F 29.59 in WSW 2.0 mph 7.0 mph 73% 0.00 in
04:59 39.5 °F 31.6 °F 29.59 in SW 2.0 mph 6.0 mph 73% 0.00 in
05:04 39.6 °F 31.7 °F 29.59 in SSW 3.0 mph 7.0 mph 73% 0.00 in
05:09 39.6 °F 31.7 °F 29.59 in SSW 3.0 mph 7.0 mph 73% 0.00 in
05:19 39.8 °F 31.9 °F 29.59 in Calm   9.0 mph 73% 0.00 in
05:24 39.9 °F 32.0 °F 29.59 in SW 2.0 mph 9.0 mph 73% 0.00 in
05:29 40.0 °F 32.1 °F 29.59 in SW 4.0 mph 11.0 mph 73% 0.00 in
05:39 40.0 °F 32.1 °F 29.59 in SW 3.0 mph 9.0 mph 73% 0.00 in
05:49 40.0 °F 32.1 °F 29.60 in SSW 2.0 mph 12.0 mph 73% 0.00 in
05:54 40.0 °F 32.1 °F 29.60 in SSW 1.0 mph 10.0 mph 73% 0.00 in
05:59 39.9 °F 32.0 °F 29.60 in SSW 3.0 mph 10.0 mph 73% 0.00 in
06:04 39.8 °F 32.2 °F 29.60 in SW 7.0 mph 13.0 mph 74% 0.00 in
06:09 39.8 °F 32.2 °F 29.60 in SSW 6.0 mph 13.0 mph 74% 0.00 in
06:14 39.7 °F 32.1 °F 29.60 in South 2.0 mph 13.0 mph 74% 0.00 in
06:19 39.7 °F 32.1 °F 29.60 in SSW 2.0 mph 13.0 mph 74% 0.00 in
06:24 39.7 °F 32.1 °F 29.60 in SW 3.0 mph 13.0 mph 74% 0.00 in
06:29 39.7 °F 32.1 °F 29.60 in SSW 3.0 mph 12.0 mph 74% 0.00 in
06:34 39.6 °F 32.0 °F 29.60 in SSW 5.0 mph 10.0 mph 74% 0.00 in
06:44 39.8 °F 31.9 °F 29.61 in SSW 6.0 mph 11.0 mph 73% 0.00 in
06:49 40.0 °F 32.1 °F 29.61 in SSW 4.0 mph 12.0 mph 73% 0.00 in
06:54 40.1 °F 32.1 °F 29.61 in SSW 2.0 mph 12.0 mph 73% 0.00 in
06:59 40.2 °F 32.2 °F 29.62 in SSW 6.0 mph 11.0 mph 73% 0.00 in
07:04 40.3 °F 32.0 °F 29.62 in SSW 5.0 mph 16.0 mph 72% 0.00 in
07:09 40.4 °F 32.1 °F 29.62 in SSW 3.0 mph 16.0 mph 72% 0.00 in
07:14 40.5 °F 32.2 °F 29.63 in SSW 7.0 mph 12.0 mph 72% 0.00 in
07:19 40.4 °F 32.1 °F 29.63 in SSW 7.0 mph 12.0 mph 72% 0.00 in
07:24 40.4 °F 32.1 °F 29.63 in SW 4.0 mph 12.0 mph 72% 0.00 in
07:29 40.5 °F 32.2 °F 29.63 in SSW 5.0 mph 11.0 mph 72% 0.00 in
07:35 40.5 °F 32.2 °F 29.63 in SW 4.0 mph 11.0 mph 72% 0.00 in
07:44 40.6 °F 32.3 °F 29.64 in SSW 5.0 mph 11.0 mph 72% 0.00 in
07:49 40.6 °F 32.3 °F 29.64 in SSW 6.0 mph 14.0 mph 72% 0.00 in
07:55 40.5 °F 32.5 °F 29.64 in SSW 6.0 mph 14.0 mph 73% 0.00 in
08:04 40.3 °F 32.3 °F 29.64 in SSW 4.0 mph 13.0 mph 73% 0.00 in
08:09 40.3 °F 32.3 °F 29.65 in SW 5.0 mph 12.0 mph 73% 0.00 in
08:14 40.4 °F 32.4 °F 29.65 in SW 5.0 mph 12.0 mph 73% 0.00 in
08:19 40.6 °F 32.3 °F 29.65 in SSW 7.0 mph 13.0 mph 72% 0.00 in
08:24 40.9 °F 32.6 °F 29.65 in SSW 7.0 mph 13.0 mph 72% 0.00 in
08:29 41.6 °F 33.2 °F 29.65 in SSW 7.0 mph 14.0 mph 72% 0.00 in
08:34 42.2 °F 33.1 °F 29.65 in SW 9.0 mph 18.0 mph 70% 0.00 in
08:39 42.7 °F 33.2 °F 29.65 in South 7.0 mph 18.0 mph 69% 0.00 in
08:44 43.1 °F 34.0 °F 29.65 in SSW 3.0 mph 15.0 mph 70% 0.00 in
08:49 43.5 °F 33.6 °F 29.66 in SSW 5.0 mph 10.0 mph 68% 0.00 in
08:54 43.7 °F 33.5 °F 29.66 in SSW 5.0 mph 10.0 mph 67% 0.00 in
08:59 43.7 °F 33.1 °F 29.66 in WSW 8.0 mph 13.0 mph 66% 0.00 in
09:04 43.5 °F 32.9 °F 29.66 in SSW 7.0 mph 15.0 mph 66% 0.00 in
09:09 43.3 °F 33.1 °F 29.66 in SW 5.0 mph 15.0 mph 67% 0.00 in
09:14 42.9 °F 32.3 °F 29.66 in SSW 8.0 mph 14.0 mph 66% 0.00 in
09:19 42.4 °F 32.2 °F 29.66 in SW 7.0 mph 16.0 mph 67% 0.00 in
09:24 42.3 °F 32.5 °F 29.66 in SW 3.0 mph 16.0 mph 68% 0.00 in
09:29 42.4 °F 32.6 °F 29.67 in SW 6.0 mph 14.0 mph 68% 0.00 in
09:34 42.8 °F 33.0 °F 29.67 in SSW 4.0 mph 14.0 mph 68% 0.00 in
09:39 43.4 °F 32.8 °F 29.67 in SSW 7.0 mph 12.0 mph 66% 0.00 in
09:44 43.6 °F 33.0 °F 29.67 in SSW 8.0 mph 16.0 mph 66% 0.00 in
09:49 44.0 °F 33.0 °F 29.67 in SSW 6.0 mph 16.0 mph 65% 0.00 in
09:54 43.9 °F 33.3 °F 29.67 in SW 9.0 mph 18.0 mph 66% 0.00 in
09:59 43.5 °F 32.9 °F 29.67 in SW 7.0 mph 18.0 mph 66% 0.00 in
10:04 43.6 °F 33.0 °F 29.68 in SW 7.0 mph 17.0 mph 66% 0.00 in
10:09 43.3 °F 32.7 °F 29.68 in SW 8.0 mph 17.0 mph 66% 0.00 in
10:14 42.7 °F 32.5 °F 29.68 in SW 6.0 mph 17.0 mph 67% 0.00 in
10:19 42.7 °F 33.6 °F 29.68 in SW 7.0 mph 13.0 mph 70% 0.00 in
10:24 42.7 °F 34.0 °F 29.68 in SSW 8.0 mph 15.0 mph 71% 0.00 in
10:29 42.3 °F 34.3 °F 29.69 in SW 5.0 mph 15.0 mph 73% 0.00 in
10:34 41.6 °F 34.3 °F 29.69 in SSW 5.0 mph 15.0 mph 75% 0.00 in
10:39 41.4 °F 34.4 °F 29.69 in SW 7.0 mph 12.0 mph 76% 0.00 in
10:44 41.1 °F 34.4 °F 29.69 in SW 3.0 mph 12.0 mph 77% 0.00 in
10:54 40.9 °F 35.2 °F 29.70 in SSW 3.0 mph 13.0 mph 80% 0.00 in
10:59 40.8 °F 35.4 °F 29.69 in SSE 3.0 mph 9.0 mph 81% 0.01 in
11:04 41.1 °F 36.0 °F 29.69 in SSW 3.0 mph 9.0 mph 82% 0.01 in
11:09 41.5 °F 36.1 °F 29.69 in SSW 3.0 mph 9.0 mph 81% 0.01 in
11:14 41.4 °F 35.4 °F 29.70 in SSW 5.0 mph 10.0 mph 79% 0.01 in
11:19 41.7 °F 35.4 °F 29.70 in SSW 5.0 mph 11.0 mph 78% 0.01 in
11:24 42.6 °F 36.2 °F 29.69 in SW 4.0 mph 11.0 mph 78% 0.01 in
11:29 43.6 °F 36.9 °F 29.69 in SW 1.0 mph 8.0 mph 77% 0.01 in
11:39 44.4 °F 35.9 °F 29.69 in SW 6.0 mph 10.0 mph 72% 0.01 in
11:44 44.0 °F 35.2 °F 29.69 in SSW 7.0 mph 11.0 mph 71% 0.01 in
11:54 44.5 °F 37.1 °F 29.69 in SSW 2.0 mph 13.0 mph 75% 0.01 in
12:00 44.7 °F 36.9 °F 29.70 in SSW 4.0 mph 10.0 mph 74% 0.01 in
12:09 44.6 °F 36.8 °F 29.70 in South 6.0 mph 11.0 mph 74% 0.01 in
12:14 44.4 °F 36.3 °F 29.70 in SSW 3.0 mph 11.0 mph 73% 0.01 in
12:19 44.4 °F 35.9 °F 29.70 in South 5.0 mph 11.0 mph 72% 0.01 in
12:24 45.5 °F 37.0 °F 29.70 in SSW 5.0 mph 11.0 mph 72% 0.01 in
12:29 46.0 °F 36.0 °F 29.70 in SSW 6.0 mph 13.0 mph 68% 0.01 in
12:34 46.3 °F 36.7 °F 29.69 in South 2.0 mph 13.0 mph 69% 0.01 in
12:44 44.9 °F 33.9 °F 29.70 in South 1.0 mph 9.0 mph 65% 0.01 in
12:49 43.8 °F 34.3 °F 29.71 in WNW 7.0 mph 16.0 mph 69% 0.01 in
12:54 41.1 °F 33.5 °F 29.71 in WNW 4.0 mph 16.0 mph 74% 0.01 in
12:59 39.3 °F 32.4 °F 29.71 in West 6.0 mph 12.0 mph 76% 0.01 in
13:09 38.3 °F 33.3 °F 29.71 in Calm   9.0 mph 82% 0.02 in
13:14 38.3 °F 33.6 °F 29.71 in Calm   6.0 mph 83% 0.03 in
13:19 38.4 °F 34.0 °F 29.72 in SW 2.0 mph 6.0 mph 84% 0.03 in
13:24 38.8 °F 34.7 °F 29.71 in Calm   6.0 mph 85% 0.04 in
13:29 39.3 °F 34.9 °F 29.71 in SW 3.0 mph 7.0 mph 84% 0.04 in
13:34 40.0 °F 35.9 °F 29.71 in WSW 1.0 mph 7.0 mph 85% 0.05 in
13:39 40.6 °F 35.2 °F 29.71 in SW 5.0 mph 11.0 mph 81% 0.05 in
13:44 41.2 °F 35.8 °F 29.71 in SSW 6.0 mph 11.0 mph 81% 0.05 in
13:49 41.6 °F 35.6 °F 29.71 in SSW 6.0 mph 10.0 mph 79% 0.06 in
13:54 42.5 °F 36.1 °F 29.72 in SSW 3.0 mph 9.0 mph 78% 0.07 in
14:04 43.2 °F 36.2 °F 29.72 in SW 6.0 mph 13.0 mph 76% 0.07 in
14:09 42.9 °F 34.8 °F 29.72 in SSW 5.0 mph 13.0 mph 73% 0.07 in
14:14 43.1 °F 34.7 °F 29.71 in SSW 2.0 mph 12.0 mph 72% 0.07 in
14:19 43.4 °F 34.3 °F 29.72 in SSW 4.0 mph 11.0 mph 70% 0.07 in
14:24 44.3 °F 35.1 °F 29.72 in SSW 4.0 mph 8.0 mph 70% 0.07 in
14:29 45.0 °F 34.7 °F 29.72 in SW 3.0 mph 9.0 mph 67% 0.07 in
14:34 46.1 °F 35.0 °F 29.72 in SSW 2.0 mph 9.0 mph 65% 0.07 in
14:45 48.2 °F 34.5 °F 29.72 in WNW 6.0 mph 11.0 mph 59% 0.07 in
14:55 48.0 °F 33.9 °F 29.72 in SSW 5.0 mph 10.0 mph 58% 0.07 in
15:04 48.0 °F 34.4 °F 29.72 in WSW 4.0 mph 11.0 mph 59% 0.07 in
15:09 48.1 °F 34.5 °F 29.72 in WSW 2.0 mph 7.0 mph 59% 0.07 in
15:14 47.6 °F 34.8 °F 29.72 in SW 3.0 mph 10.0 mph 61% 0.07 in
15:19 47.3 °F 33.3 °F 29.72 in WSW 4.0 mph 10.0 mph 58% 0.07 in
15:24 47.3 °F 34.1 °F 29.72 in WSW 2.0 mph 9.0 mph 60% 0.07 in
15:29 47.6 °F 33.6 °F 29.72 in West 7.0 mph 10.0 mph 58% 0.07 in
15:39 47.8 °F 34.2 °F 29.72 in SW 4.0 mph 8.0 mph 59% 0.07 in
15:44 47.8 °F 34.2 °F 29.72 in West 1.0 mph 8.0 mph 59% 0.07 in
15:49 47.3 °F 32.0 °F 29.73 in West 2.0 mph 13.0 mph 55% 0.07 in
15:59 46.4 °F 32.0 °F 29.73 in West 8.0 mph 14.0 mph 57% 0.07 in
16:04 45.8 °F 31.9 °F 29.74 in West 5.0 mph 14.0 mph 58% 0.07 in
16:09 45.5 °F 32.4 °F 29.74 in West 5.0 mph 12.0 mph 60% 0.07 in
16:14 45.4 °F 33.1 °F 29.74 in West 2.0 mph 12.0 mph 62% 0.07 in
16:19 45.4 °F 32.7 °F 29.74 in WSW 1.0 mph 12.0 mph 61% 0.07 in
16:24 45.6 °F 32.9 °F 29.74 in SSW 2.0 mph 7.0 mph 61% 0.07 in
16:29 45.6 °F 33.3 °F 29.74 in SSW 1.0 mph 7.0 mph 62% 0.07 in
16:34 45.7 °F 33.4 °F 29.74 in SSW 2.0 mph 7.0 mph 62% 0.07 in
16:39 46.1 °F 33.4 °F 29.74 in Calm   7.0 mph 61% 0.07 in
16:44 46.3 °F 33.6 °F 29.74 in Calm   5.0 mph 61% 0.07 in
16:49 46.5 °F 33.4 °F 29.74 in Calm   5.0 mph 60% 0.07 in
16:54 46.7 °F 34.4 °F 29.74 in Calm   2.0 mph 62% 0.07 in
16:59 46.5 °F 33.8 °F 29.74 in Calm   5.0 mph 61% 0.07 in
17:04 46.4 °F 34.9 °F 29.74 in Calm   5.0 mph 64% 0.07 in
17:09 46.2 °F 34.7 °F 29.74 in SSW 3.0 mph 6.0 mph 64% 0.07 in
17:14 45.9 °F 34.4 °F 29.74 in SSW 1.0 mph 6.0 mph 64% 0.07 in
17:19 45.7 °F 34.6 °F 29.74 in Calm   6.0 mph 65% 0.07 in
17:24 45.5 °F 34.4 °F 29.75 in Calm   5.0 mph 65% 0.07 in
17:29 45.4 °F 34.3 °F 29.75 in Calm   5.0 mph 65% 0.07 in
17:34 45.1 °F 34.4 °F 29.75 in Calm   4.0 mph 66% 0.07 in
17:39 45.0 °F 34.7 °F 29.75 in SSW 1.0 mph 4.0 mph 67% 0.07 in
17:44 44.7 °F 34.8 °F 29.75 in SSW 1.0 mph 4.0 mph 68% 0.07 in
17:49 44.5 °F 35.3 °F 29.75 in Calm   4.0 mph 70% 0.07 in
17:54 44.5 °F 33.5 °F 29.76 in SW 3.0 mph 7.0 mph 65% 0.07 in
17:59 44.5 °F 33.5 °F 29.76 in Calm   7.0 mph 65% 0.07 in
18:04 44.5 °F 34.6 °F 29.76 in Calm   6.0 mph 68% 0.07 in
18:09 44.4 °F 33.8 °F 29.76 in Calm   2.0 mph 66% 0.07 in
18:14 44.3 °F 32.9 °F 29.76 in Calm   2.0 mph 64% 0.07 in
18:19 44.4 °F 33.0 °F 29.76 in NW 2.0 mph 5.0 mph 64% 0.07 in
18:29 44.2 °F 33.6 °F 29.77 in Calm   7.0 mph 66% 0.07 in
18:35 44.1 °F 33.5 °F 29.77 in NNW 1.0 mph 5.0 mph 66% 0.07 in
18:44 43.5 °F 33.3 °F 29.78 in North 1.0 mph 9.0 mph 67% 0.07 in
18:49 43.3 °F 33.1 °F 29.78 in NW 2.0 mph 7.0 mph 67% 0.07 in
18:54 43.1 °F 32.9 °F 29.78 in NW 3.0 mph 10.0 mph 67% 0.07 in
18:59 42.8 °F 33.3 °F 29.78 in NNW 1.0 mph 10.0 mph 69% 0.07 in
19:09 41.8 °F 33.4 °F 29.79 in Calm   7.0 mph 72% 0.07 in
19:14 41.4 °F 33.1 °F 29.79 in NW 1.0 mph 7.0 mph 72% 0.07 in
19:19 41.1 °F 32.8 °F 29.79 in Calm   6.0 mph 72% 0.07 in
19:24 41.0 °F 32.7 °F 29.79 in Calm   4.0 mph 72% 0.07 in
19:29 41.0 °F 33.0 °F 29.80 in Calm     73% 0.07 in
19:34 40.9 °F 32.9 °F 29.80 in Calm     73% 0.07 in
19:40 40.9 °F 32.9 °F 29.80 in Calm     73% 0.07 in
19:50 40.8 °F 32.8 °F 29.80 in Calm     73% 0.07 in
19:59 40.6 °F 33.3 °F 29.80 in Calm     75% 0.07 in
20:04 40.5 °F 33.5 °F 29.80 in Calm     76% 0.07 in
20:09 40.4 °F 33.1 °F 29.80 in Calm     75% 0.07 in
20:14 40.3 °F 32.7 °F 29.80 in Calm     74% 0.07 in
20:19 40.3 °F 32.7 °F 29.80 in Calm     74% 0.07 in
20:24 40.2 °F 32.9 °F 29.80 in Calm     75% 0.07 in
20:29 40.2 °F 32.9 °F 29.81 in Calm     75% 0.07 in
20:34 40.2 °F 32.6 °F 29.81 in Calm     74% 0.07 in
20:39 40.2 °F 32.6 °F 29.81 in Calm   1.0 mph 74% 0.07 in
20:44 40.2 °F 32.6 °F 29.81 in Calm   1.0 mph 74% 0.07 in
20:49 40.2 °F 32.6 °F 29.81 in Calm     74% 0.07 in
20:54 40.3 °F 32.7 °F 29.82 in Calm   1.0 mph 74% 0.07 in
21:04 40.2 °F 32.6 °F 29.82 in WNW 1.0 mph 4.0 mph 74% 0.07 in
21:09 40.4 °F 32.8 °F 29.82 in Calm   4.0 mph 74% 0.07 in
21:14 40.5 °F 32.5 °F 29.82 in WNW 1.0 mph 5.0 mph 73% 0.07 in
21:19 40.6 °F 32.3 °F 29.82 in Calm   5.0 mph 72% 0.07 in
21:24 40.7 °F 32.4 °F 29.83 in Calm   3.0 mph 72% 0.07 in
21:29 40.7 °F 32.0 °F 29.83 in WNW 1.0 mph 4.0 mph 71% 0.07 in
21:34 40.7 °F 32.0 °F 29.83 in Calm   4.0 mph 71% 0.07 in
21:44 40.6 °F 32.3 °F 29.83 in Calm   1.0 mph 72% 0.07 in
21:49 40.5 °F 32.2 °F 29.83 in Calm   1.0 mph 72% 0.07 in
21:59 40.3 °F 32.0 °F 29.83 in Calm   3.0 mph 72% 0.07 in
22:04 40.4 °F 32.1 °F 29.84 in Calm   3.0 mph 72% 0.07 in
22:09 40.5 °F 32.5 °F 29.84 in Calm   4.0 mph 73% 0.07 in
22:14 40.5 °F 32.5 °F 29.84 in Calm   4.0 mph 73% 0.07 in
22:19 40.4 °F 32.1 °F 29.84 in WNW 1.0 mph 4.0 mph 72% 0.07 in
22:24 40.5 °F 32.2 °F 29.84 in WNW 1.0 mph 4.0 mph 72% 0.07 in
22:29 40.6 °F 32.3 °F 29.84 in WNW 2.0 mph 5.0 mph 72% 0.07 in
22:34 40.6 °F 32.3 °F 29.84 in WNW 1.0 mph 5.0 mph 72% 0.07 in
22:44 40.4 °F 32.4 °F 29.84 in Calm   3.0 mph 73% 0.07 in
22:49 40.2 °F 32.6 °F 29.84 in Calm   2.0 mph 74% 0.07 in
22:54 40.1 °F 32.5 °F 29.84 in Calm   4.0 mph 74% 0.07 in
23:00 40.1 °F 32.5 °F 29.84 in Calm   4.0 mph 74% 0.07 in
23:09 40.1 °F 32.8 °F 29.84 in Calm   1.0 mph 75% 0.07 in
23:14 40.0 °F 32.4 °F 29.85 in WSW 1.0 mph 6.0 mph 74% 0.07 in
23:19 40.0 °F 32.4 °F 29.84 in WSW 4.0 mph 6.0 mph 74% 0.07 in
23:24 40.2 °F 32.2 °F 29.84 in Calm   6.0 mph 73% 0.07 in
23:29 40.2 °F 32.2 °F 29.84 in Calm   4.0 mph 73% 0.07 in
23:34 40.1 °F 32.1 °F 29.84 in Calm   3.0 mph 73% 0.07 in
23:44 39.9 °F 32.3 °F 29.84 in Calm     74% 0.07 in
23:50 39.8 °F 32.5 °F 29.84 in Calm   1.0 mph 75% 0.07 in
23:59 39.7 °F 32.4 °F 29.84 in Calm   3.0 mph 75% 0.07 in
Westford Weather
Compliments of Weather Underground

 
 
Current Radar Loop:

Copyright © WestfordWeather.net 2007-2014. All rights reserved.